Theta_e
309 308 310 311 311 309 309 311 308 304 303 309 317 321 321 321 320 320 320 321 321 323 323 321 320 326 330 332 333 325 324 326 325 323 325 320 320 321 322 325 329 331 327 327 330
308 309 308 310 311 311 308 311 311 309 311 304 312 319 321 321 321 320 318 318 320 322 323 321 319 323 328 331 332 326 324 326 323 321 320 319 319 321 324 327 330 329 329 329 330
310 308 308 308 308 310 310 308 311 311 308 308 308 315 320 321 321 321 320 316 319 321 325 326 323 323 326 328 329 324 327 322 323 319 317 319 318 320 324 327 326 326 327 329 330
312 309 308 307 308 308 311 309 306 311 309 304 306 311 317 320 322 320 320 321 317 322 324 327 328 325 326 327 329 328 327 327 325 327 326 318 318 320 323 324 324 325 325 327 328
312 312 309 308 308 309 308 311 305 304 310 308 304 307 313 317 319 321 322 320 319 324 324 327 327 325 325 327 327 328 327 328 328 329 329 319 317 318 321 323 323 323 325 325 327
313 312 312 308 307 308 308 310 309 304 303 308 304 308 310 316 317 319 321 321 320 323 326 326 327 322 322 327 326 327 328 328 326 326 328 325 318 316 320 322 323 321 323 323 326
311 313 312 312 307 307 308 307 310 305 303 307 305 308 311 313 315 316 320 322 320 322 326 327 327 321 324 325 326 327 324 323 322 324 324 324 317 315 319 320 322 322 322 324 326
308 311 314 312 310 307 308 306 309 305 304 308 306 308 311 309 316 317 317 321 323 322 324 326 325 324 326 325 324 323 323 325 325 326 326 317 324 317 318 318 321 322 322 324 324
306 308 309 312 312 308 308 306 309 306 307 308 307 309 309 309 310 316 317 320 321 323 325 324 324 324 324 323 326 324 321 322 323 323 321 317 321 318 321 318 318 320 322 323 324
305 305 304 310 311 309 307 306 309 308 307 307 308 308 307 309 308 312 317 318 320 322 323 324 323 324 323 322 324 326 324 321 322 323 323 322 325 323 321 317 318 319 320 323 324
303 304 305 306 311 310 307 308 309 308 307 307 308 308 307 308 308 312 316 317 320 321 323 322 324 325 324 323 320 321 324 322 323 319 323 324 325 323 321 318 319 319 318 319 321
302 302 304 306 307 310 307 309 308 307 308 309 309 308 309 309 311 313 316 317 319 321 320 322 324 321 320 320 322 322 324 323 322 320 322 324 325 323 320 318 321 321 323 321 319
302 302 303 305 310 311 307 308 307 306 306 308 309 309 309 310 310 312 314 316 317 319 320 322 321 319 320 322 323 323 324 323 323 318 317 319 322 322 319 318 319 321 323 324 325
301 303 302 304 306 309 308 309 306 305 306 308 309 309 310 309 309 310 312 314 313 317 318 318 318 320 321 323 321 324 321 322 321 324 326 321 323 320 321 321 319 320 322 323 324
300 301 302 302 306 310 306 308 306 305 307 305 308 309 309 308 308 310 311 312 312 314 317 319 318 320 322 320 320 321 320 323 323 324 323 320 323 323 319 321 321 321 322 324 326
301 301 300 301 304 309 307 307 306 305 305 305 307 309 309 308 307 310 311 311 311 313 313 314 311 312 318 319 319 319 322 322 321 324 326 323 324 323 322 320 321 321 323 324 325
301 302 301 302 306 306 307 306 306 307 298 305 307 308 308 309 309 309 311 312 310 311 311 312 314 313 313 319 320 321 322 325 325 324 328 322 321 324 317 316 320 321 322 324 325
301 301 302 301 304 307 306 305 308 300 297 302 304 307 309 308 308 307 309 311 309 309 305 308 308 314 313 316 321 321 323 322 326 323 323 316 324 323 318 320 320 321 323 324 324
301 301 304 303 304 307 305 308 304 300 296 303 305 307 307 306 305 307 306 308 308 307 307 309 308 311 314 315 317 321 322 320 315 302 313 316 317 315 316 314 315 318 318 321 323
301 301 304 303 306 305 305 308 303 298 303 303 304 305 306 307 305 306 305 305 304 308 306 308 309 312 314 318 318 319 319 323 321 324 322 317 319 320 317 318 316 315 316 320 322
302 303 303 303 305 304 306 304 299 300 303 302 302 303 303 305 304 305 304 303 304 306 307 306 307 309 315 318 319 319 322 321 321 320 323 322 320 312 316 315 317 318 319 320 320
302 303 304 306 304 303 306 298 299 300 302 301 302 302 303 303 305 303 302 301 304 306 307 305 308 304 305 309 310 311 309 318 323 323 321 319 320 311 315 315 317 318 319 320 321
302 300 305 305 306 305 301 300 299 301 301 301 302 303 303 303 304 303 302 305 303 306 306 306 307 300 302 304 307 310 311 309 321 319 323 323 321 310 309 311 314 316 319 320 319
302 303 304 305 304 303 302 302 300 300 299 299 300 302 303 303 302 304 305 306 306 304 307 307 307 303 303 302 311 311 314 313 313 324 323 322 321 317 310 309 309 313 316 316 317
301 301 299 303 304 302 302 301 300 300 299 299 300 303 302 304 301 302 304 303 303 307 307 307 309 307 308 308 309 310 313 313 314 317 323 321 320 319 317 313 310 314 315 315 315
300 299 300 301 301 301 301 300 301 298 300 299 300 299 299 301 303 300 300 300 302 300 305 307 303 308 309 310 311 310 309 310 311 312 312 316 320 319 318 317 315 317 317 314 317
300 301 301 301 301 302 293 300 301 299 298 299 299 299 300 298 299 299 300 299 299 300 300 301 298 296 302 303 303 305 305 307 309 311 312 312 318 318 318 315 314 315 317 319 319
Wind_Speed
27 29 29 29 26 24 23 21 20 22 26 28 23 21 19 18 20 22 24 23 23 10 12 16 12 10 6 8 7 5 1 2 3 5 4 4 5 6 5 5 10 11 6 5 16
29 29 29 31 29 24 24 22 20 20 20 26 25 21 20 18 19 27 28 22 22 17 12 14 15 10 7 7 3 6 1 5 2 1 3 3 8 9 6 7 9 10 13 9 18
33 31 30 30 32 30 25 25 23 20 22 21 24 21 19 18 15 25 25 24 24 22 15 12 12 11 6 4 3 5 5 2 4 4 6 7 6 8 7 3 15 18 18 15 23
39 35 32 29 30 31 29 25 26 22 19 19 21 22 18 18 9 4 17 23 24 24 22 14 15 11 7 6 8 5 8 8 6 11 9 8 9 7 17 17 6 17 11 18 25
40 39 35 32 31 30 30 27 24 25 22 19 21 21 21 21 27 5 4 23 29 28 27 22 22 12 6 10 11 5 6 6 10 11 10 11 15 11 18 26 13 10 18 19 22
46 42 39 35 32 34 31 29 24 22 25 19 19 21 23 21 21 31 7 14 31 32 27 25 16 17 10 9 9 13 13 11 7 9 9 5 11 5 12 18 20 13 17 20 22
38 36 39 39 34 34 32 32 26 22 22 21 20 23 23 28 14 23 18 5 27 31 29 25 19 22 11 5 8 9 4 6 13 7 4 7 8 8 23 12 24 19 17 21 23
38 39 36 42 38 35 33 32 27 23 22 20 20 22 13 27 13 20 29 13 17 26 30 26 18 19 7 10 5 4 2 6 4 15 2 6 11 8 19 16 20 22 20 22 24
39 43 45 45 42 38 35 32 27 23 22 20 21 15 9 16 30 19 21 23 10 25 25 28 19 8 7 6 3 5 4 6 3 7 7 5 9 10 13 17 20 22 22 24 25
35 38 40 36 45 40 37 33 26 22 21 19 15 8 18 23 27 33 22 21 19 19 19 15 12 6 4 6 14 7 7 4 5 2 7 8 17 18 18 11 22 24 24 25 27
37 36 35 36 42 44 40 35 26 13 33 17 17 3 5 12 19 31 30 20 18 16 12 13 8 17 26 15 3 7 5 7 4 5 4 9 17 16 15 20 22 24 29 29 31
37 38 35 33 38 48 46 45 48 26 22 12 4 9 10 15 12 31 27 20 12 14 13 7 17 24 15 9 5 2 5 4 1 3 5 5 17 15 13 16 28 32 31 31 33
37 37 35 34 37 48 51 56 41 28 9 25 11 26 13 12 5 23 30 18 7 12 16 16 19 15 13 12 14 13 10 4 4 2 2 4 17 15 13 22 29 34 35 37 36
38 40 40 40 40 54 55 51 42 29 5 8 11 16 14 10 2 20 31 17 4 11 10 12 21 10 17 16 17 18 13 5 5 5 7 8 11 14 8 17 17 29 38 41 41
38 42 40 40 42 52 57 50 44 26 7 13 10 10 21 14 12 11 25 19 12 6 6 7 7 18 12 25 16 10 6 13 14 7 2 5 4 11 8 14 13 21 37 45 42
39 43 41 39 42 54 57 52 40 8 7 9 14 12 12 16 6 14 10 12 5 2 3 6 6 2 18 11 17 6 5 4 2 10 13 22 14 18 14 8 12 26 38 41 40
39 42 44 44 43 54 57 49 8 10 1 10 14 18 21 10 9 7 12 11 8 13 14 22 12 1 2 12 9 9 16 9 8 7 5 15 9 26 5 9 15 22 37 48 43
41 38 45 51 41 66 61 14 11 9 9 7 13 19 16 13 7 7 14 13 15 4 7 15 10 21 15 12 10 23 15 4 11 5 20 8 13 12 13 28 26 34 42 42 38
43 38 49 52 50 66 44 17 9 16 10 15 19 20 10 9 8 11 10 12 15 11 9 11 11 3 12 12 18 13 19 27 2 2 2 5 11 9 5 6 12 30 31 36 41
45 43 49 47 51 66 21 16 8 8 13 17 10 12 16 23 12 16 14 11 7 20 1 4 2 5 8 6 18 24 11 12 10 9 11 5 18 16 12 20 11 13 31 47 46
46 33 45 52 66 41 17 8 6 13 24 7 7 8 9 18 13 13 12 3 16 12 14 3 4 4 4 10 18 14 14 15 13 14 12 18 17 9 16 15 19 23 38 41 42
49 10 41 56 13 13 19 15 9 9 4 5 8 8 12 15 10 11 11 6 21 21 14 6 1 6 16 7 4 5 4 21 13 15 18 22 23 1 15 22 27 30 43 39 39
36 7 43 57 14 14 8 8 7 11 5 6 5 5 6 14 8 10 11 11 20 17 15 9 6 3 10 5 10 12 16 15 24 9 13 18 22 4 6 7 22 24 32 36 35
24 6 17 47 17 17 19 17 9 5 4 6 6 8 10 11 3 13 8 7 21 20 19 24 4 8 13 12 3 13 18 25 27 18 18 19 27 19 9 10 11 24 30 30 33
5 4 5 11 12 19 19 20 20 8 2 6 4 9 10 6 5 7 10 4 5 6 10 11 6 5 16 16 13 18 14 16 15 24 17 27 25 33 21 12 9 15 17 20 23
6 7 13 7 28 26 18 11 23 5 5 5 10 9 7 8 4 5 7 3 3 3 4 2 5 4 16 14 10 14 17 23 25 25 20 26 26 30 24 24 22 33 31 29 33
17 35 19 17 16 18 6 14 19 10 9 7 15 6 4 5 18 17 13 9 5 5 4 5 3 3 13 10 11 10 19 20 21 28 26 24 25 43 28 18 21 20 29 38 42
Wind_Direction
240 232 229 233 238 237 223 229 231 229 226 224 224 226 226 222 225 224 222 221 214 208 217 217 225 228 213 199 155 109 77 210 220 152 248 184 197 208 206 198 194 199 203 202 186
234 232 230 230 231 230 226 222 229 224 226 221 219 223 223 225 230 235 226 225 216 210 213 213 206 200 173 177 152 103 190 214 249 223 281 272 224 214 186 195 220 221 217 208 188
233 229 228 231 229 229 226 223 223 226 226 221 216 217 220 221 240 249 235 224 217 205 203 200 201 182 160 164 145 155 163 313 296 352 349 297 255 214 193 214 222 224 216 205 189
235 231 226 227 226 224 224 224 224 220 227 220 213 212 215 213 223 222 218 221 217 208 212 195 184 162 145 162 171 141 187 267 302 301 334 313 297 218 214 229 257 243 233 210 195
237 232 229 224 223 223 223 225 223 222 220 219 211 206 208 218 222 194 253 206 201 206 206 194 186 177 161 169 157 184 196 195 270 301 311 310 264 250 239 235 250 245 225 218 211
237 228 230 227 222 219 219 221 219 219 215 215 208 204 208 232 237 229 306 204 194 201 203 204 201 190 187 190 183 198 199 203 263 289 291 288 282 221 258 243 237 238 229 221 219
239 222 230 229 227 216 216 217 218 216 210 208 203 206 213 225 243 218 228 249 201 200 204 205 205 195 164 155 180 145 194 221 213 190 289 334 280 230 246 251 229 237 231 224 220
239 232 231 228 224 218 209 211 212 210 204 200 199 205 229 226 219 209 217 217 207 205 208 204 191 187 175 138 109 142 111 239 175 129 246 150 261 287 241 233 233 233 229 228 223
238 236 237 221 221 216 207 204 205 203 195 193 191 195 234 224 218 202 216 217 204 206 213 210 199 173 158 141 133 203 202 195 270 182 120 119 285 271 243 228 238 242 234 231 228
234 239 244 229 220 213 203 198 196 186 184 183 197 180 230 217 214 207 220 219 205 203 205 196 203 186 187 187 209 189 213 175 192 157 181 166 247 266 268 247 243 245 246 239 235
237 235 237 233 225 209 195 182 162 174 185 187 199 158 156 184 200 199 211 213 203 200 195 178 207 208 210 207 160 162 175 202 171 154 139 218 253 262 253 247 256 250 245 244 241
240 235 239 229 225 205 194 180 183 195 179 179 201 170 144 164 166 197 198 195 191 210 189 197 219 219 216 206 238 267 189 180 256 140 196 193 258 255 257 245 249 249 251 252 248
238 233 231 231 221 198 193 196 177 160 146 208 182 194 169 173 156 182 190 190 191 208 200 211 223 222 213 218 223 234 218 168 169 135 274 36 272 254 255 248 253 255 256 254 252
235 231 222 221 215 190 196 189 176 166 126 171 191 197 167 164 213 188 195 186 207 222 196 234 251 192 216 224 201 233 212 195 152 166 235 181 274 242 225 239 231 243 248 251 247
237 227 218 218 214 191 191 184 173 159 201 159 170 182 183 169 140 179 186 190 191 169 178 219 161 209 207 219 207 228 165 206 225 236 275 207 272 274 184 235 244 247 247 250 249
232 220 216 218 216 189 183 176 169 144 195 166 150 165 156 194 155 152 164 190 191 65 288 228 130 148 226 215 206 148 150 149 152 220 234 228 219 258 234 203 242 249 251 251 248
225 216 210 211 207 187 177 165 167 193 194 157 171 171 178 164 148 173 177 179 163 183 218 241 230 162 262 225 192 191 211 220 237 228 232 206 199 233 254 204 215 234 246 250 250
224 213 209 212 205 175 169 175 187 128 179 176 165 169 175 147 165 167 169 189 207 173 196 212 231 202 200 208 204 211 203 198 200 198 229 150 224 234 229 232 237 241 245 252 253
215 211 202 206 208 172 169 184 163 166 161 148 141 164 173 172 136 177 188 196 192 187 178 191 235 243 181 197 202 205 211 221 18 58 343 179 267 275 206 253 247 242 246 245 253
203 201 201 196 179 173 176 178 153 153 126 142 138 174 176 180 164 184 175 199 199 204 283 196 314 206 220 189 213 216 194 203 218 207 230 232 239 235 201 218 227 240 245 248 249
188 190 198 195 178 178 185 156 126 173 138 141 129 124 170 179 173 185 193 223 198 186 180 156 142 225 101 200 216 214 233 215 221 212 235 246 249 196 211 209 219 225 239 245 246
178 190 181 186 178 181 175 142 131 148 128 103 100 99 153 153 166 188 206 216 185 153 189 195 94 252 240 216 194 241 236 252 210 209 225 230 244 166 215 199 211 218 227 242 250
172 130 178 180 180 170 126 129 102 156 139 130 121 138 142 160 161 193 186 219 177 171 168 157 211 323 320 250 223 235 248 257 253 217 218 220 247 196 211 202 221 232 239 249 257
160 146 167 178 173 141 131 146 120 133 67 88 109 109 108 160 58 182 177 217 189 187 175 169 166 189 224 230 341 221 238 250 248 228 221 216 244 219 214 204 214 228 241 249 254
121 96 110 161 165 138 128 161 139 140 73 120 54 152 138 143 172 173 179 159 114 192 173 173 224 222 255 274 294 268 256 256 274 254 238 227 228 249 238 230 225 248 254 270 267
111 115 102 101 146 144 131 156 147 108 137 156 141 144 165 145 139 115 117 116 154 128 141 237 262 227 261 261 257 258 287 285 277 256 289 262 267 259 244 239 227 236 253 263 267
122 127 120 141 153 148 157 155 142 124 30 132 140 115 73 97 106 106 99 115 110 116 151 178 148 99 265 268 277 267 244 254 256 250 238 259 243 257 259 254 242 230 237 245 252